Previsão horária em Alinowo

Hoje, 16 Janeiro, Sábado

Tempo Temperatura Precipitação Vento Pressão Humidade
00:00 -8°C° 0 mm 3 m/s 756 mmHg 94%
01:00 -9°C° 0 mm 4 m/s 756 mmHg 93%
02:00 -8°C° 0 mm 4 m/s 755 mmHg 94%
03:00 -8°C° 0 mm 4 m/s 755 mmHg 94%
04:00 -8°C° 0 mm 4 m/s 755 mmHg 94%
05:00 -8°C° 0 mm 4 m/s 755 mmHg 94%
06:00 -8°C° 0 mm 4 m/s 755 mmHg 93%
07:00 -7°C° 0 mm 4 m/s 755 mmHg 94%
08:00 -7°C° 0 mm 5 m/s 755 mmHg 93%
09:00 -7°C° 0 mm 5 m/s 754 mmHg 91%
10:00 -7°C° 0 mm 5 m/s 754 mmHg 90%
11:00 -8°C° 0 mm 6 m/s 753 mmHg 90%
12:00 -8°C° 0 mm 6 m/s 753 mmHg 89%
13:00 -8°C° 0 mm 6 m/s 752 mmHg 89%
14:00 -8°C° 0.3 mm 7 m/s 752 mmHg 90%
15:00 -8°C° 0.3 mm 7 m/s 751 mmHg 92%
16:00 -8°C° 0.3 mm 8 m/s 751 mmHg 93%
17:00 -8°C° 0.4 mm 7 m/s 751 mmHg 93%
18:00 -7°C° 0.4 mm 7 m/s 751 mmHg 93%
19:00 -6°C° 0.4 mm 6 m/s 751 mmHg 93%
20:00 -10°C° 0.1 mm 6 m/s 751 mmHg 92%
21:00 -12°C° 0.1 mm 5 m/s 751 mmHg 91%
22:00 -14°C° 0.1 mm 4 m/s 752 mmHg 90%
23:00 -15°C° 0 mm 4 m/s 752 mmHg 91%

Amanhã, 17 Janeiro, Domingo

Tempo Temperatura Precipitação Vento Pressão Humidade
00:00 -15°C° 0 mm 3 m/s 752 mmHg 92%
01:00 -17°C° 0 mm 3 m/s 752 mmHg 92%
02:00 -17°C° 0 mm 3 m/s 753 mmHg 93%
03:00 -18°C° 0 mm 3 m/s 753 mmHg 93%
04:00 -19°C° 0 mm 3 m/s 753 mmHg 93%
05:00 -18°C° 0 mm 2 m/s 753 mmHg 93%
06:00 -18°C° 0 mm 2 m/s 754 mmHg 92%
07:00 -19°C° 0 mm 2 m/s 754 mmHg 92%
08:00 -18°C° 0 mm 2 m/s 755 mmHg 91%
09:00 -18°C° 0 mm 2 m/s 755 mmHg 90%
10:00 -17°C° 0 mm 2 m/s 755 mmHg 88%
11:00 -15°C° 0 mm 1 m/s 756 mmHg 88%
12:00 -14°C° 0 mm 1 m/s 756 mmHg 87%
13:00 -14°C° 0 mm 1 m/s 756 mmHg 86%
14:00 -14°C° 0 mm 1 m/s 756 mmHg 88%
15:00 -14°C° 0 mm 1 m/s 756 mmHg 89%
16:00 -15°C° 0 mm 1 m/s 756 mmHg 91%
17:00 -15°C° 0 mm 1 m/s 756 mmHg 91%
18:00 -15°C° 0 mm 1 m/s 757 mmHg 91%
19:00 -15°C° 0 mm 0 m/s 757 mmHg 91%
20:00 -15°C° 0 mm 0 m/s 757 mmHg 91%
21:00 -15°C° 0 mm 1 m/s 757 mmHg 91%
22:00 -16°C° 0 mm 1 m/s 757 mmHg 91%
23:00 -16°C° 0 mm 1 m/s 757 mmHg 91%

Depois de amanhã, 18 Janeiro, Segunda-feira

Tempo Temperatura Precipitação Vento Pressão Humidade
00:00 -16°C° 0 mm 1 m/s 758 mmHg 91%
01:00 -16°C° 0 mm 1 m/s 758 mmHg 92%
02:00 -16°C° 0 mm 1 m/s 757 mmHg 91%
03:00 -16°C° 0 mm 1 m/s 757 mmHg 91%
04:00 -16°C° 0 mm 0 m/s 757 mmHg 91%
05:00 -16°C° 0 mm 1 m/s 757 mmHg 91%
06:00 -15°C° 0 mm 1 m/s 757 mmHg 91%
07:00 -17°C° 0 mm 2 m/s 757 mmHg 90%
08:00 -17°C° 0 mm 2 m/s 757 mmHg 90%
09:00 -16°C° 0 mm 2 m/s 757 mmHg 90%
10:00 -15°C° 0 mm 2 m/s 757 mmHg 90%
11:00 -14°C° 0 mm 2 m/s 756 mmHg 89%
12:00 -14°C° 0 mm 3 m/s 756 mmHg 88%
13:00 -13°C° 0 mm 3 m/s 756 mmHg 87%
14:00 -13°C° 0 mm 3 m/s 756 mmHg 88%
15:00 -13°C° 0 mm 3 m/s 755 mmHg 88%
16:00 -13°C° 0 mm 3 m/s 755 mmHg 89%
17:00 -12°C° 0 mm 3 m/s 755 mmHg 91%
18:00 -12°C° 0 mm 3 m/s 754 mmHg 92%
19:00 -12°C° 0 mm 3 m/s 754 mmHg 94%
20:00 -9°C° 0.2 mm 3 m/s 754 mmHg 94%
21:00 -8°C° 0.2 mm 3 m/s 753 mmHg 95%
22:00 -6°C° 0.2 mm 3 m/s 753 mmHg 96%
23:00 -5°C° 0.4 mm 4 m/s 752 mmHg 96%

19 Janeiro, Terça-feira

Tempo Temperatura Precipitação Vento Pressão Humidade
00:00 -3°C° 0.4 mm 4 m/s 752 mmHg 97%
01:00 -2°C° 0.4 mm 4 m/s 752 mmHg 97%
02:00 -1°C° 0.2 mm 5 m/s 752 mmHg 97%
03:00 -1°C° 0.2 mm 5 m/s 751 mmHg 97%
04:00 -1°C° 0.2 mm 5 m/s 751 mmHg 97%
05:00 -1°C° 0.1 mm 5 m/s 751 mmHg 97%
06:00 -1°C° 0.1 mm 5 m/s 751 mmHg 97%
07:00 -1°C° 0.1 mm 5 m/s 751 mmHg 97%
08:00 -1°C° 0 mm 5 m/s 751 mmHg 97%
09:00 -1°C° 0 mm 4 m/s 750 mmHg 98%
10:00 -1°C° 0 mm 4 m/s 750 mmHg 98%
11:00 -1°C° 0 mm 4 m/s 750 mmHg 97%
12:00 -2°C° 0 mm 4 m/s 749 mmHg 96%
13:00 -2°C° 0 mm 4 m/s 749 mmHg 95%
14:00 -2°C° 0.2 mm 5 m/s 748 mmHg 96%
15:00 -2°C° 0.2 mm 5 m/s 748 mmHg 97%
16:00 -2°C° 0.2 mm 5 m/s 747 mmHg 97%
17:00 -2°C° 0.3 mm 5 m/s 747 mmHg 97%
18:00 -2°C° 0.3 mm 5 m/s 747 mmHg 97%
19:00 -2°C° 0.3 mm 5 m/s 746 mmHg 97%
20:00 -3°C° 0.6 mm 6 m/s 746 mmHg 98%
21:00 -2°C° 0.6 mm 6 m/s 745 mmHg 98%
22:00 -2°C° 0.6 mm 6 m/s 745 mmHg 98%
23:00 -2°C° 0.8 mm 6 m/s 745 mmHg 98%

20 Janeiro, Quarta-feira

Tempo Temperatura Precipitação Vento Pressão Humidade
00:00 -1°C° 0.8 mm 6 m/s 745 mmHg 98%
01:00 -1°C° 0.8 mm 7 m/s 744 mmHg 98%
02:00 -1°C° 0.3 mm 6 m/s 744 mmHg 98%
03:00 -1°C° 0.3 mm 6 m/s 744 mmHg 97%
04:00 0°C° 0.3 mm 5 m/s 744 mmHg 97%
05:00 0°C° 0.1 mm 5 m/s 745 mmHg 96%
06:00 -1°C° 0.1 mm 5 m/s 745 mmHg 95%
07:00 -1°C° 0.1 mm 5 m/s 745 mmHg 94%
08:00 -1°C° 0 mm 5 m/s 745 mmHg 93%
09:00 0°C° 0 mm 5 m/s 745 mmHg 93%
10:00 0°C° 0 mm 5 m/s 745 mmHg 92%
11:00 0°C° 0 mm 5 m/s 745 mmHg 91%
12:00 0°C° 0 mm 5 m/s 744 mmHg 91%
13:00 0°C° 0 mm 5 m/s 744 mmHg 90%
14:00 0°C° 0 mm 5 m/s 744 mmHg 89%
15:00 0°C° 0 mm 5 m/s 744 mmHg 88%
16:00 0°C° 0 mm 5 m/s 744 mmHg 87%
17:00 0°C° 0 mm 5 m/s 744 mmHg 86%
18:00 0°C° 0 mm 5 m/s 744 mmHg 84%
19:00 -1°C° 0 mm 5 m/s 743 mmHg 83%
20:00 -1°C° 0 mm 5 m/s 743 mmHg 82%
21:00 -1°C° 0 mm 4 m/s 743 mmHg 82%
22:00 -1°C° 0 mm 4 m/s 743 mmHg 82%
23:00 -1°C° 0 mm 4 m/s 743 mmHg 81%

21 Janeiro, Quinta-feira

Tempo Temperatura Precipitação Vento Pressão Humidade
00:00 -1°C° 0 mm 4 m/s 743 mmHg 81%
01:00 -2°C° 0 mm 4 m/s 743 mmHg 80%
02:00 -1°C° 0 mm 5 m/s 743 mmHg 81%
03:00 -1°C° 0 mm 5 m/s 742 mmHg 82%
04:00 -1°C° 0 mm 6 m/s 742 mmHg 83%
05:00 -1°C° 0 mm 5 m/s 742 mmHg 85%
06:00 -1°C° 0 mm 4 m/s 742 mmHg 87%
07:00 -1°C° 0 mm 4 m/s 742 mmHg 89%
08:00 -1°C° 0 mm 4 m/s 742 mmHg 90%
09:00 -1°C° 0 mm 4 m/s 741 mmHg 91%
10:00 0°C° 0 mm 4 m/s 741 mmHg 92%
11:00 0°C° 0 mm 4 m/s 741 mmHg 94%
12:00 0°C° 0 mm 4 m/s 741 mmHg 96%
13:00 0°C° 0 mm 4 m/s 740 mmHg 98%
14:00 0°C° 0 mm 4 m/s 741 mmHg 96%
15:00 0°C° 0 mm 4 m/s 741 mmHg 94%
16:00 0°C° 0 mm 4 m/s 741 mmHg 92%
17:00 0°C° 0 mm 5 m/s 741 mmHg 90%
18:00 0°C° 0 mm 5 m/s 742 mmHg 88%
19:00 0°C° 0 mm 5 m/s 742 mmHg 86%
20:00 0°C° 0 mm 5 m/s 742 mmHg 85%
21:00 -1°C° 0 mm 6 m/s 743 mmHg 85%
22:00 -1°C° 0 mm 6 m/s 743 mmHg 84%
23:00 -2°C° 0 mm 6 m/s 743 mmHg 85%
Mostrar mais

Necessitamos do seu Consentimento

A Meteoprog e os seus Fornecedores de Serviços podem armazenar e aceder a dados pessoais como cookies, identificadores do dispositivo ou outras tecnologias semelhantes existentes no seu dispositivo e processar estes dados para personalizar conteúdos e anúncios, assim como funcionalidades nas redes sociais e análise de tráfego.

  • Armazenar e/ou aceder a informações no seu dispositivo

    Os cookies, identificadores do dispositivo ou outras informações podem ser armazenados ou acedidos no seu dispositivo, para os fins acima indicados.

  • Anúncios e conteúdos personalizados, medição de anúncios e conteúdos, dados sobre o público-alvo e desenvolvimento de produtos

    Os anúncios e os conteúdos podem ser personalizados com base num perfil. Podem ser adicionados dados adicionais para uma maior personalização dos anúncios e dos conteúdos. A eficácia dos anúncios e dos conteúdos pode ser medida. Podem ser obtidas informações sobre o público que visualizou os anúncios e os conteúdos. Estes dados podem ser usados para desenvolver ou melhorar sistemas, softwares ou a experiência do utilizador.

Ao clicar em "Eu concordo”, permitirá o uso de cookies, identificadores do dispositivo e web beacons mencionados ou outras tecnologias semelhantes. As configurações do navegador do seu dispositivo podem ser alteradas.

Para certos fins, podem ser invocados interesses legítimos ao invés de consentimento. Pode ler mais informação sobre este assunto na nossa Política de Privacidade e Cookies.